Location: Castelnau
(43.6639°N, 0.8431°W)
Time: 17:06:11
(UTC+00:00)

Cosmos 1302 Rocket - Pass Details

Date: 13 January 2026
Orbit: 752 x 772 km, 74.0° (Epoch: 11 February)

Event Time Altitude Azimuth Distance (km) Brightness Sun altitude
Exits shadow 05:26:50 49° 314° (NW) 989 4.2 -22.6°
Maximum altitude 05:28:08 68° 253° (WSW) 829 3.9 -22.4°
Drops below altitude 10° 05:33:19 10° 171° (S) 2,299 6.7 -21.5°
Sets 05:35:40 0° 169° (S) 3,218 7.5 -21.0°
